GW7013 Weather Reports


time (UTC)temp
C
wind
direction
speed
KPH
gust
KPH
rain 1hr
cm
rain 24hr
cm
rain mn
cm
humidity
%
barometer
mb
20260504081030 8 204 8.0 11.3 0.00 0.00 0.00 52 1010.3
20260504045024 6 140 0.0 1.6 0.00 0.00 0.00 70 1010.3
20260504044021 6 0.0 1.6 0.00 0.00 0.00 68 1010.4
20260504043018 6 169 0.0 1.6 0.00 0.00 0.00 68 1010.5
20260504042015 6 0.0 0.0 0.00 0.00 0.00 68 1010.6
20260504041032 6 177 0.0 3.2 0.00 0.00 0.00 68 1010.6
20260504040029 6 178 1.6 3.2 0.00 0.00 0.00 71 1010.7
20260504035028 6 345 1.6 4.8 0.00 0.00 0.00 71 1010.8
20260504034023 6 14 1.6 3.2 0.00 0.00 0.00 72 1010.9
20260504033020 5 325 1.6 4.8 0.00 0.00 0.00 71 1010.9
20260504032035 5 134 0.0 1.6 0.00 0.00 0.00 71 1011.0
20260504031032 5 0.0 0.0 0.00 0.00 0.00 71 1010.8
20260504030030 5 0.0 1.6 0.00 0.00 0.00 71 1010.9
20260504025047 6 329 0.0 3.2 0.00 0.00 0.00 70 1010.9
20260504024045 5 342 0.0 1.6 0.00 0.00 0.00 70 1011.1
20260504023021 5 323 0.0 3.2 0.00 0.00 0.00 70 1011.0
20260504022018 5 336 0.0 3.2 0.00 0.00 0.00 70 1011.0
20260504021055 5 344 0.0 1.6 0.00 0.00 0.00 71 1011.1
20260504020032 5 336 1.6 3.2 0.00 0.00 0.00 71 1011.0
20260504015028 6 0.0 1.6 0.00 0.00 0.00 69 1010.9
20260504014025 6 183 0.0 3.2 0.00 0.00 0.00 69 1010.8
20260504013022 6 0.0 1.6 0.00 0.00 0.00 68 1010.8
20260504012039 6 340 0.0 3.2 0.00 0.00 0.00 66 1011.0
20260504011016 6 193 0.0 3.2 0.00 0.00 0.00 65 1010.8
20260504010033 6 333 0.0 3.2 0.00 0.00 0.00 64 1010.6
20260504005030 6 0.0 1.6 0.00 0.00 0.00 63 1010.4
20260504004027 6 338 0.0 3.2 0.00 0.00 0.00 62 1010.2
20260504003024 7 301 0.0 3.2 0.00 0.00 0.00 60 1010.2
20260504002021 7 0.0 0.0 0.00 0.00 0.00 54 1010.1
20260504001018 8 135 0.0 1.6 0.00 0.00 0.00 52 1010.1
20260504000035 9 310 0.0 1.6 0.00 0.00 0.00 49 1010.0
20260503235033 10 147 0.0 3.2 0.00 0.00 0.00 46 1009.9
20260503234029 10 124 0.0 3.2 0.00 0.00 0.00 45 1009.9
20260503233027 10 194 1.6 6.4 0.00 0.00 0.00 45 1009.8
20260503232024 10 249 4.8 8.0 0.00 0.00 0.00 44 1009.8
20260503231021 10 281 0.0 3.2 0.00 0.00 0.00 44 1010.0
20260503230017 10 212 3.2 9.7 0.00 0.00 0.00 44 1009.9
20260503225053 10 222 4.8 12.9 0.00 0.00 0.00 45 1010.0
20260503224031 10 327 3.2 11.3 0.00 0.00 0.00 45 1010.0
20260503223027 10 213 6.4 17.7 0.00 0.00 0.00 44 1010.0
20260503222044 10 226 4.8 17.7 0.00 0.00 0.00 44 1010.2
20260503221022 10 328 4.8 14.5 0.00 0.00 0.00 43 1010.0
20260503220019 11 326 6.4 14.5 0.00 0.00 0.00 41 1010.0
20260503215036 11 237 4.8 16.1 0.00 0.00 0.00 39 1009.9
20260503214053 11 336 4.8 14.5 0.00 0.00 0.00 39 1009.7
20260503213029 11 343 6.4 14.5 0.00 0.00 0.00 38 1009.6
20260503212027 11 230 3.2 9.7 0.00 0.00 0.00 38 1009.5
20260503211023 11 224 4.8 24.1 0.00 0.00 0.00 36 1009.6
20260503210041 12 304 6.4 19.3 0.00 0.00 0.00 35 1009.6
20260503205017 11 315 4.8 9.7 0.00 0.00 0.00 35 1009.5
20260503204034 11 330 4.8 19.3 0.00 0.00 0.00 35 1009.5
20260503203052 11 320 8.0 20.9 0.00 0.00 0.00 33 1009.5
20260503202028 11 335 6.4 17.7 0.00 0.00 0.00 33 1009.5
20260503201026 11 335 8.0 16.1 0.00 0.00 0.00 32 1009.6
20260503200022 11 357 6.4 16.1 0.00 0.00 0.00 31 1009.6
20260503195019 11 318 6.4 19.3 0.00 0.00 0.00 30 1009.9
20260503194016 11 322 6.4 14.5 0.00 0.00 0.00 30 1009.9
20260503193033 11 340 9.7 20.9 0.00 0.00 0.00 30 1010.1
20260503192030 11 319 9.7 24.1 0.00 0.00 0.00 30 1010.2
20260503191027 11 318 8.0 25.7 0.00 0.00 0.00 31 1010.2
20260503190024 11 289 6.4 14.5 0.00 0.00 0.00 32 1010.3
20260503185021 10 330 8.0 17.7 0.00 0.00 0.00 33 1010.5
20260503184017 10 335 8.0 17.7 0.00 0.00 0.00 33 1010.6
20260503183035 10 321 6.4 22.5 0.00 0.00 0.00 34 1010.7
20260503182051 10 341 8.0 14.5 0.00 0.00 0.00 35 1010.7
20260503181026 8 335 3.2 14.5 0.00 0.00 0.00 35 1010.8
20260503180043 8 339 8.0 16.1 0.00 0.00 0.00 35 1010.9
20260503175020 9 333 8.0 16.1 0.00 0.00 0.00 35 1011.0
20260503174017 10 342 9.7 24.1 0.00 0.00 0.00 35 1011.2
20260503173034 8 356 4.8 14.5 0.00 0.00 0.00 38 1011.2
20260503172031 8 340 4.8 17.7 0.00 0.25 0.00 37 1011.4
20260503171027 8 342 6.4 17.7 0.00 0.25 0.00 38 1011.5
20260503170105 8 341 3.2 12.9 0.00 0.25 0.00 38 1011.5
20260503131018 5 337 4.8 14.5 0.00 0.25 0.00 57 1012.6